Regional Weather Roundup
Issued by NWS Memphis, TN

Home | Current Version | Previous Version | Text Only | Print | Product List | Glossary On
Versions: 1 2 3 4 5 6 7 8 9 10 11 12 13 14 15 16 17 18 19 20 21 22 23 24 25 26 27 28 29 30 31 32 33 34 35 36 37 38 39 40 41 42 43 44 45 46 47 48 49 50
000
ASUS44 KMEG 301510
RWRMEG
MEMPHIS CWA HOURLY WEATHER ROUNDUP
NATIONAL WEATHER SERVICE MEMPHIS TN
1000 AM CDT SUN APR 30 2017

...WEST TENNESSEE...

CITY           SKY/WX    TMP DP  RH WIND       PRES   REMARKS
MEMPHIS INTL   LGT RAIN  73  70  90 S16G26    29.74F
NWS MEMPHIS      N/A     72 N/A N/A MISG        N/A
JACKSON        CLOUDY    73  70  90 S10G21    29.81F
SOMERVILLE     PTSUNNY   73  70  88 S12G21    29.79S
BOLIVAR        PTSUNNY   73  70  88 SE10      29.81F
LEXINGTON      PTSUNNY   75  66  73 S15G23    29.85F
SAVANNAH       MOSUNNY   75  66  73 S14G25    29.87S
DYERSBURG      TSTM      66  66 100 S9        29.80S FOG
UNION CITY     MOSUNNY   70  68  94 SE7G15    29.77F
HUNTINGDON     PTSUNNY   72  68  88 S12G21    29.82F FOG


...EASTERN ARKANSAS...

CITY           SKY/WX    TMP DP  RH WIND       PRES   REMARKS
JONESBORO      LGT RAIN  71  67  87 S13G21    29.68F
WEST MEMPHIS   LGT RAIN  73  70  90 S24G33    29.69F
BATESVILLE     CLOUDY    70  66  88 S6        29.66S
NEWPORT        LGT RAIN  70  68  94 MISG        N/A
WALNUT RIDGE   CLOUDY    68  64  88 SE15      29.67F
BLYTHEVILLE    LGT RAIN  69  69 100 SE10      29.74F
SEARCY         CLOUDY    66  66 100 S12       29.69S
STUTTGART      CLOUDY    64  55  72 S9G18     29.70F
PINE BLUFF     CLOUDY    64  62  93 SW9       29.70F
MONTICELLO     CLOUDY    64  62  93 W7        29.73F


...NORTH MISSISSIPPI...

CITY           SKY/WX    TMP DP  RH WIND       PRES   REMARKS
TUPELO         LGT RAIN  73  65  75 SE16G22   29.88R
OXFORD         LGT RAIN  68  68 100 SE10G16   29.82F
BATESVILLE     RAIN      72  70  94 SE7       29.79F
OLIVE BRANCH   TSTM     N/A N/A N/A S17G28    29.78S FOG
TUNICA         RAIN      70  70 100 SE23G30   29.74F
CLARKSDALE     CLOUDY    72  72 100 SE18G29   29.73F FOG
CORINTH        CLOUDY    75  64  69 S18       29.86S
GREENWOOD      TSTM      66  66 100 S8G21     29.76S FOG
COLUMBUS       CLOUDY    75  68  78 S15G21    29.89S
STARKVILLE     LGT RAIN  72  68  88 SE13      29.90R
GOLDEN TRIANGL PTSUNNY   73  63  68 S16G23    29.85R


...SOUTHEAST MISSOURI...

CITY           SKY/WX    TMP DP  RH WIND       PRES   REMARKS
KENNETT        CLOUDY    68  66  94 E10       29.73F FOG
MALDEN         LGT RAIN  66  64  94 E9        29.76S
POPLAR BLUFF   CLOUDY    66  65  96 SE10      29.73F
CAPE GIRARDEAU LGT RAIN  64  62  93 SE14      29.77F


...NORTHWEST ALABAMA...

CITY           SKY/WX    TMP DP  RH WIND       PRES   REMARKS
MUSCLE SHOALS  PTSUNNY   76  65  68 S14G24    29.93F


...MIDDLE TENNESSEE...

CITY           SKY/WX    TMP DP  RH WIND       PRES   REMARKS
NASHVILLE      CLOUDY    78  65  63 S17G25    29.97S
CLARKSVILLE    CLOUDY    75  65  70 S14G23    29.88F
COLUMBIA       PTSUNNY   75  75 100 S13       29.93S


...WESTERN KENTUCKY...

CITY           SKY/WX    TMP DP  RH WIND       PRES   REMARKS
PADUCAH        TSTM      65  62  90 NE8       29.79F
FORT CAMPBELL  CLOUDY    74  67  76 S15G23    29.87F


...CENTRAL ARKANSAS...

CITY           SKY/WX    TMP DP  RH WIND       PRES   REMARKS
LITTLE ROCK    CLOUDY    62  62 100 S10       29.69S


SKY/WX REPORTED AS FAIR MEANS FEW OR NO CLOUDS BELOW
12 THOUSAND FEET.




USA.gov is the U.S. government's official web portal to all federal, state and local government web resources and services.